Hourly Data Report for October 08, 2013

All times are specified in Local Standard Time (LST). Add 1 hour to adjust for Daylight Saving Time where and when it is observed.

CAPE DORSET A
NUNAVUT

64°13'49.000" N
76°31'30.000" W
48.20 m
2400637
71366
YTE

Download Data

Hourly Data (October 2013)
Hourly Data Report for October 8, 2013
Temp Definition
°C
Dew Point Temp Definition
°C
Rel Hum Definition
%
Wind Dir Definition
10's deg

Wind Spd Definition
km/h
Visibility Definition
km
Stn Press Definition
kPa
Hmdx Definition


Wind Chill Definition


Weather Definition


TIME
00:00 Legend Double Dagger -1.1 -1.7 96 6 35 2.0 99.16   -8 LegendNANA
01:00 Legend Double Dagger -1.1 -1.8 95 5 39 1.6 99.05   -9 LegendNANA
02:00 Legend Double Dagger -1.3 -2.0 95 5 42 1.6 98.93   -9 LegendNANA
03:00 Legend Double Dagger -1.6 -2.4 94 5 46 1.6 98.80   -10 LegendNANA
04:00 Legend Double Dagger -1.5 -2.3 94 4 42 1.6 98.73   -10 LegendNANA
05:00 Legend Double Dagger -1.3 -2.0 95 5 37 1.2 98.68   -9 LegendNANA
06:00 Legend Double Dagger -1.3 -2.0 95 4 37 1.2 98.63   -9 LegendNANA
07:00 Legend Double Dagger -1.4 -2.0 96 3 37 0.4 98.60   -9 LegendNANA
08:00 Legend Double Dagger -1.5 -2.2 95 4 39 0.4 98.57   -9 LegendNANA
09:00 Legend Double Dagger -1.5 -2.5 93 3 41 0.8 98.59   -9 LegendNANA
10:00 Legend Double Dagger -1.5 -2.5 93 2 48 0.8 98.58   -10 LegendNANA
11:00 Legend Double Dagger -1.5 -2.6 92 2 50 0.8 98.59   -10 LegendNANA
12:00 Legend Double Dagger -1.6 -2.4 95 2 50 0.4 98.62   -10 LegendNANA
13:00 Legend Double Dagger -1.4 -2.2 94 2 42 0.6 98.70   -9 LegendNANA
14:00 Legend Double Dagger -1.2 -2.4 92 36 41 1.2 98.74   -9 LegendNANA
15:00 Legend Double Dagger -1.9 -3.9 86 35 41 1.6 98.78   -10 LegendNANA
16:00 Legend Double Dagger -2.3 -4.4 86 35 41 4.8 98.84   -11 LegendNANA
17:00 Legend Double Dagger -2.7 -4.7 86 34 42 4.8 98.92   -11 LegendNANA
18:00 Legend Double Dagger -2.8 -5.0 85 34 55 2.0 98.94   -12 LegendNANA
19:00 Legend Double Dagger -2.5 -4.7 85 33 42 3.6 98.94   -11 LegendNANA
20:00 Legend Double Dagger -1.9 -4.4 83 30 35 16.1 98.94   -9 LegendNANA
21:00 Legend Double Dagger -1.7 -4.7 80 32 41 16.1 98.97   -10 LegendNANA
22:00 Legend Double Dagger -1.5 -4.7 79 32 39 16.1 99.03   -9 LegendNANA
23:00 Legend Double Dagger -1.5 -4.7 79 32 42 16.1 99.10   -10 LegendNANA

Notes on Data Quality.

Legend

  • E = Estimated
  • M = Missing
  • NA = Not Available
  • ‡ = Partner data that is not subject to review by the National Climate Archives
Date modified: